Weather History for Guthrie, OK

Change the Weather History Date:

Tuesday, December 3, 2013

  Actual Average Record
Temperature  
Mean Temperature 55 °F -  
Max Temperature 68 °F 54 °F 79 °F (2012)
Min Temperature 42 °F 30 °F 15 °F (1980)
Degree Days  
Heating Degree Days 10    
Growing Degree Days 5 (Base 50)    
Moisture  
Dew Point 44 °F    
Average Humidity 81    
Maximum Humidity 100    
Minimum Humidity 40    
Precipitation  
Precipitation 0.00 in - - ()
Sea Level Pressure  
Sea Level Pressure 29.55 in    
Wind  
Wind Speed 8 mph (SSE)    
Max Wind Speed 12 mph    
Max Gust Speed -    
Visibility 5 miles    
Events Fog    
Averages and records for this station are not official NWS values.
T = Trace of Precipitation, MM = Missing Value Source: NWS Daily Summary

Daily Weather History Graph

Daily Weather History Graph

Search for Another Location

Airport:

Trip Planner

Search our weather history database for the weather conditions in past years. The results will help you decide how hot, cold, wet, or windy it might be!

Date:

Astronomy

Dec. 03, 2013 Rise Set
Actual Time 7:23 AM CST 5:15 PM CST
Civil Twilight 6:55 AM CST 5:43 PM CST
Nautical Twilight 6:23 AM CST 6:15 PM CST
Astronomical Twilight 5:52 AM CST 6:46 PM CST
Moon 7:54 AM CST (12/3) 6:19 PM CST (12/3)
Length of Visible Light 10h 48m
Length of Day
9h 52m
New Moon, 1% of the Moon is Illuminated
Dec 3
New Moon
Dec 9
First Quarter
Dec 17
Full
Dec 25
Last Quarter
Jan 1
New

Hourly Weather History & Observations

Time (CST) Temp. Windchill Dew Point Humidity Pressure Visibility Wind Dir Wind Speed Gust Speed Precip Events Conditions
12:53 AM 48.0 °F - 43.0 °F 83% 29.61 in 6.0 mi South 8.1 mph - N/A   Haze
1:53 AM 48.0 °F - 44.1 °F 86% 29.57 in 5.0 mi South 8.1 mph - N/A   Clear
2:53 AM 50.0 °F - 46.0 °F 86% 29.57 in 4.0 mi South 10.4 mph - N/A   Clear
3:53 AM 46.9 °F - 44.1 °F 90% 29.57 in 3.0 mi SSE 8.1 mph - N/A   Clear
4:03 AM 46.4 °F 42.9 °F 44.6 °F 93% 29.57 in 2.5 mi SSE 6.9 mph - N/A   Clear
4:11 AM 46.4 °F 42.9 °F 44.6 °F 93% 29.57 in 3.0 mi SSE 6.9 mph - N/A   Clear
4:32 AM 44.6 °F 40.2 °F 42.8 °F 93% 29.57 in 2.5 mi SSE 8.1 mph - N/A   Clear
4:53 AM 45.0 °F 40.1 °F 43.0 °F 93% 29.56 in 2.5 mi SSE 9.2 mph - N/A   Clear
5:41 AM 44.6 °F 39.7 °F 42.8 °F 93% 29.55 in 3.0 mi SSE 9.2 mph - N/A   Clear
5:53 AM 45.0 °F 39.7 °F 42.1 °F 90% 29.55 in 3.0 mi SSE 10.4 mph - N/A   Clear
6:20 AM 42.8 °F 37.5 °F 41.0 °F 93% 29.55 in 2.0 mi SSE 9.2 mph - N/A   Clear
6:25 AM 42.8 °F 37.5 °F 41.0 °F 93% 29.55 in 1.8 mi SSE 9.2 mph - N/A   Partly Cloudy
6:36 AM 42.8 °F 38.0 °F 41.0 °F 93% 29.55 in 0.8 mi SSE 8.1 mph - N/A   Mostly Cloudy
6:49 AM 42.8 °F 38.6 °F 42.8 °F 100% 29.56 in 1.2 mi SSE 6.9 mph - N/A   Overcast
6:53 AM 43.0 °F 39.5 °F 42.1 °F 97% 29.57 in 1.5 mi SSE 5.8 mph - N/A   Overcast
7:10 AM 42.8 °F 40.1 °F 42.8 °F 100% 29.57 in 1.5 mi SE 4.6 mph - N/A   Scattered Clouds
7:40 AM 44.6 °F 41.4 °F 42.8 °F 93% 29.57 in 0.8 mi SSE 5.8 mph - N/A   Mostly Cloudy
7:53 AM 44.1 °F 40.8 °F 43.0 °F 96% 29.59 in 0.2 mi SSE 5.8 mph - N/A Fog Fog
8:29 AM 46.4 °F 43.5 °F 44.6 °F 93% 29.57 in 1.2 mi SE 5.8 mph - N/A   Mostly Cloudy
8:37 AM 46.4 °F 42.9 °F 44.6 °F 93% 29.57 in 1.8 mi SE 6.9 mph - N/A   Scattered Clouds
8:44 AM 46.4 °F 42.4 °F 44.6 °F 93% 29.57 in 2.0 mi SE 8.1 mph - N/A   Partly Cloudy
8:53 AM 46.9 °F - 45.0 °F 93% 29.57 in 2.0 mi SE 6.9 mph - N/A   Clear
9:17 AM 50.0 °F - 46.4 °F 87% 29.56 in 3.0 mi SE 6.9 mph - N/A   Clear
9:53 AM 52.0 °F - 46.9 °F 83% 29.59 in 4.0 mi SE 9.2 mph - N/A   Haze
10:53 AM 55.9 °F - 46.9 °F 72% 29.58 in 6.0 mi SE 10.4 mph - N/A   Haze
11:53 AM 60.1 °F - 46.0 °F 60% 29.55 in 7.0 mi South 10.4 mph - N/A   Clear
12:53 PM 63.0 °F - 46.0 °F 54% 29.51 in 8.0 mi South 6.9 mph - N/A   Clear
1:53 PM 66.0 °F - 46.0 °F 48% 29.48 in 10.0 mi ESE 6.9 mph - N/A   Clear
2:53 PM 68.0 °F - 44.1 °F 42% 29.47 in 10.0 mi South 11.5 mph - N/A   Clear
3:53 PM 68.0 °F - 43.0 °F 40% 29.48 in 10.0 mi South 9.2 mph - N/A   Clear
4:53 PM 64.0 °F - 44.1 °F 48% 29.49 in 10.0 mi South 4.6 mph - N/A   Clear
5:53 PM 54.0 °F - 43.0 °F 66% 29.52 in 10.0 mi South 3.5 mph - N/A   Clear
6:53 PM 53.1 °F - 43.0 °F 69% 29.53 in 10.0 mi SSE 6.9 mph - N/A   Clear
7:53 PM 52.0 °F - 42.1 °F 69% 29.54 in 10.0 mi SSE 6.9 mph - N/A   Clear
8:53 PM 53.1 °F - 43.0 °F 69% 29.52 in 10.0 mi SSE 8.1 mph - N/A   Clear
9:53 PM 53.1 °F - 45.0 °F 74% 29.52 in 9.0 mi SSE 10.4 mph - N/A   Clear
10:53 PM 51.1 °F - 45.0 °F 80% 29.51 in 7.0 mi SSE 10.4 mph - N/A   Clear
11:53 PM 50.0 °F - 44.1 °F 80% 29.49 in 7.0 mi SSE 9.2 mph - N/A   Clear